Tracking 19638 objects as of 18-Apr-2019
HD Live streaming from Space Station
objects crossing your sky now

THORAD AGENA D DEB

Track THORAD AGENA D DEB now!
10-day predictions


NORAD ID: 42504
Int'l Code: 1970-025RJ
Perigee: 808.1 km
Apogee: 931.0 km
Inclination: 99.1 °
Period: 102.2 minutes
Semi major axis: 7240 km
RCS: Unknown
Launch date: April 8, 1970
Source: United States (US)
Launch site: AIR FORCE WESTERN TEST RANGE (AFWTR)

Note: This is SATELLITE DEBRIS
aabbcc
Your satellite tracking list
Your tracking list is empty




NASA's NSSDC Master Catalog

Two Line Element Set (TLE):
1 42504U 70025RJ  19107.04526158 +.00000587 +00000-0 +35287-3 0  9996
2 42504 099.0964 140.6779 0084875 275.7397 083.4100 14.09108264225684
Source of the keplerian elements: AFSPC